York, PA

9:44 PM EDT on October 19, 2019 (GMT -0400)
York

Weather History for KTHV - September, 2019

Change the Weather History Date:

Wednesday, September 18, 2019

  Actual Average Record
Temperature  
Mean Temperature 60 °F -  
Max Temperature 75 °F 0 °F 84 °F (2006)
Min Temperature 46 °F - 39 °F (2013)
Degree Days  
Heating Degree Days 6    
Growing Degree Days 10 (Base 50)    
Moisture  
Dew Point 46 °F    
Average Humidity 66    
Maximum Humidity 90    
Minimum Humidity 33    
Precipitation  
Precipitation 0.00 in - - ()
Sea Level Pressure  
Sea Level Pressure 30.22 in    
Wind  
Wind Speed 2 mph ()    
Max Wind Speed 12 mph    
Max Gust Speed 16 mph    
Visibility 10.0 miles    
Events      
Averages and records for this station are not official NWS values.
T = Trace of Precipitation, MM = Missing Value Source: Averaged Metar Reports

Daily Weather History Graph

Daily Weather History Graph

Search for Another Location

Airport or City:

Astronomy

Sep. 18, 2019 Rise Set
Actual Time 6:51 AM EDT 7:11 PM EDT
Civil Twilight 6:23 AM EDT 7:38 PM EDT
Nautical Twilight 5:52 AM EDT 8:10 PM EDT
Astronomical Twilight 5:19 AM EDT 8:42 PM EDT
Moon 9:44 PM EDT (9/18) 10:52 AM EDT (9/18)
Length of Visible Light 13h 14m
Length of Day
12h 20m
Waning Gibbous, 82% of the Moon is Illuminated
Sep 18
Waning Gibbous
Sep 21
Last Quarter
Sep 28
New
Oct 5
First Quarter
Oct 13
Full

Hourly Weather History & Observations

Time (EDT) Temp. Dew Point Humidity Pressure Visibility Wind Dir Wind Speed Gust Speed Precip Events Conditions
12:53 AM 51.1 °F 48.0 °F 89% 30.16 in 10.0 mi Calm Calm - N/A   Clear
1:53 AM 50.0 °F 46.9 °F 89% 30.17 in 10.0 mi Calm Calm - N/A   Clear
2:53 AM 48.9 °F 46.0 °F 90% 30.17 in 10.0 mi Calm Calm - N/A   Clear
3:53 AM 48.0 °F 45.0 °F 89% 30.17 in 10.0 mi Calm Calm - N/A   Clear
4:53 AM 48.0 °F 44.1 °F 86% 30.17 in 10.0 mi Calm Calm - N/A   Clear
5:53 AM 46.9 °F 44.1 °F 90% 30.19 in 10.0 mi Calm Calm - N/A   Clear
6:53 AM 46.0 °F 43.0 °F 89% 30.21 in 10.0 mi Calm Calm - N/A   Clear
7:53 AM 52.0 °F 48.0 °F 86% 30.23 in 10.0 mi Calm Calm - N/A   Clear
8:53 AM 60.1 °F 48.0 °F 64% 30.24 in 10.0 mi NE 5.8 mph - N/A   Clear
9:53 AM 64.9 °F 48.9 °F 56% 30.25 in 10.0 mi NNE 6.9 mph - N/A   Clear
10:53 AM 68.0 °F 48.9 °F 50% 30.25 in 10.0 mi ESE 4.6 mph - N/A   Clear
11:53 AM 71.1 °F 48.9 °F 45% 30.25 in 10.0 mi ENE 8.1 mph - N/A   Clear
12:53 PM 73.0 °F 45.0 °F 37% 30.23 in 10.0 mi Variable 5.8 mph - N/A   Clear
1:53 PM 73.9 °F 44.1 °F 34% 30.23 in 10.0 mi Variable 6.9 mph - N/A   Clear
2:53 PM 73.9 °F 43.0 °F 33% 30.22 in 10.0 mi NE 8.1 mph - N/A   Clear
3:53 PM 73.9 °F 44.1 °F 34% 30.22 in 10.0 mi ENE 5.8 mph 16.1 mph N/A   Clear
4:53 PM 73.9 °F 45.0 °F 35% 30.22 in 10.0 mi NE 11.5 mph - N/A   Clear
5:53 PM 73.0 °F 45.0 °F 37% 30.22 in 10.0 mi NE 8.1 mph - N/A   Clear
6:53 PM 69.1 °F 45.0 °F 42% 30.23 in 10.0 mi East 4.6 mph - N/A   Clear
7:53 PM 59.0 °F 46.9 °F 64% 30.25 in 10.0 mi Calm Calm - N/A   Clear
8:53 PM 54.0 °F 48.0 °F 80% 30.25 in 10.0 mi Calm Calm - N/A   Clear
9:53 PM 52.0 °F 46.9 °F 83% 30.27 in 10.0 mi Calm Calm - N/A   Clear
10:53 PM 51.1 °F 46.9 °F 86% 30.28 in 10.0 mi Calm Calm - N/A   Clear
11:53 PM 50.0 °F 46.0 °F 86% 30.30 in 10.0 mi Calm Calm - N/A   Clear